Location: Asheville, NC
(35.6000°N, 82.5500°W)
Time: 18:43:33
(UTC-04:00)

Vanguard 1 - Pass Details

Date: 11 February 2018
Orbit: 650 x 3833 km, 34.3° (Epoch: 21 May)

Event Time Altitude Azimuth Distance (km) Brightness Sun altitude
Rises 22:38:24 0° 276° (W) 2,955 - -54.2°
Reaches altitude 10° 22:40:42 10° 267° (W) 2,057 - -54.7°
Maximum altitude 22:44:49 37° 199° (SSW) 1,135 - -55.4°
Drops below altitude 10° 22:50:09 10° 133° (SE) 2,674 - -56.3°
Sets 22:53:33 0° 125° (SE) 4,004 - -56.9°
